User: anonymous   Login
Location: Louisville
(33.0010°N, 82.4110°W)
Time: 22:08:22
(UTC-04:00)
Language:

Hubble Space Telescope - Orbit

View from above orbital plane
View from above orbital plane
View from above satellite
View from above satellite

Ground track
Ground track

The orbit data is extracted from the following two-line orbital elements,

1 20580U 90037B   19293.87704272  .00000402  00000-0  13486-4 0  9997
2 20580  28.4687 110.7332 0002758  24.6706  97.8055 15.09283631419675
Epoch (UTC): 20 October 2019 21:02:56
Eccentricity: 0.0002758
inclination: 28.4687°
perigee height: 536 km
apogee height: 540 km
right ascension of ascending node: 110.7332°
argument of perigee: 24.6706°
revolutions per day: 15.09283631
mean anomaly at epoch: 97.8055°
orbit number at epoch: 41967

The dashed part of the orbit path shows where the satellite is in the earth's shadow,  

DLR